Simultaneous Nadir Overpasses (SNOs) Predictions

Prediction of SNOs between METOP-C and LANDSAT-8 Satellite Orbit:

Table of predicted SNOs for the next 14.0 days since TLE Epoch: 3/18/2023
Index Date (METOP-C) Time (METOP-C) Lat,Lon (METOP-C) SZA (METOP-C ) Date (LANDSAT-8) Time (LANDSAT-8) Lat,Lon (LANDSAT-8) SZA (LANDSAT-8 ) Distance(km) Time Diff (sec)
1 03/19/2023 08:38:08 -81.09, -90.79 96.57 03/19/2023 08:39:21 -81.09, -90.83 96.55 0.68 73
2 03/19/2023 09:28:46 81.12, 77.19 83.50 03/19/2023 09:28:46 81.12, 77.27 83.51 1.57 0
3 03/19/2023 10:19:25 -81.15,-114.44 96.39 03/19/2023 10:18:11 -81.16,-114.45 96.41 1.27 74
4 03/22/2023 04:12:27 -81.10, -24.34 97.65 03/22/2023 04:13:33 -81.10, -24.26 97.62 1.63 66
5 03/22/2023 05:03:06 81.11, 143.28 82.37 03/22/2023 05:02:59 81.11, 143.45 82.39 2.97 7
6 03/24/2023 23:46:45 -81.09, 42.00 98.75 03/24/2023 23:47:44 -81.09, 42.04 98.72 0.69 59
7 03/25/2023 00:37:23 81.12,-149.98 81.33 03/25/2023 00:37:09 81.12,-149.92 81.33 1.03 14
8 03/27/2023 19:21:04 -81.09, 108.24 99.85 03/27/2023 19:21:55 -81.09, 108.43 99.81 3.16 51
9 03/27/2023 20:11:42 81.11, -83.71 80.23 03/27/2023 20:11:20 81.11, -83.56 80.23 2.50 22
10 03/30/2023 14:55:22 -81.09, 174.76 100.91 03/30/2023 14:56:05 -81.09, 174.90 100.88 2.47 43



Historial Predications of SNOs between METOP-C and LANDSAT-8
